Location: Krishnamma Banjar
(17.2175°N, 80.5166°E)
Time: 19:53:40
(UTC+00:00)

Meteor 2-20 Rocket - Pass Details

Date: 03 August 2024
Orbit: 872 x 1023 km, 82.5° (Epoch: 14 September)

Event Time Altitude Azimuth Distance (km) Brightness Sun altitude
Rises 23:37:11 0° 187° (S) 3,635 7.2 -10.1°
Reaches altitude 10° 23:39:43 10° 188° (S) 2,668 6.5 -9.5°
Maximum altitude 23:45:48 78° 274° (W) 944 4.4 -8.2°
Drops below altitude 10° 23:51:39 10° 1° (N) 2,573 7.0 -6.9°
Sets 23:54:04 0° 3° (N) 3,498 7.7 -6.3°
